Location: Lussas
(44.6119°N, 4.4726°E)
Time: 06:06:19
(UTC+00:00)

Cosmos 489 Rocket - Pass Details

Date: 26 November 2020
Orbit: 952 x 984 km, 74.0° (Epoch: 18 January)

Event Time Altitude Azimuth Distance (km) Brightness Sun altitude
Exits shadow 04:45:07 32° 322° (NW) 1,597 5.2 -22.3°
Maximum altitude 04:48:00 62° 254° (WSW) 1,092 4.4 -21.8°
Drops below altitude 10° 04:54:12 10° 176° (S) 2,722 7.0 -20.7°
Sets 04:56:46 0° 173° (S) 3,669 7.7 -20.3°
